CW0988 Weather Reports


Display with metric or nautical units.
time (UTC)temp
F
wind
direction
speed
MPH
gust
MPH
rain 1hr
in
rain 24hr
in
rain mn
in
humidity
%
barometer
mb
20260505073022 69 233 4.0 8.0 0.00 0.00 0.00 40 1007.1
20260505072507 69 229 3.0 5.0 0.00 0.00 0.00 40 1007.1
20260505072010 70 252 2.0 6.0 0.00 0.00 0.00 40 1007.2
20260505071528 70 248 3.0 6.0 0.00 0.00 0.00 39 1007.2
20260505071011 70 240 2.0 8.0 0.00 0.00 0.00 39 1007.2
20260505070504 70 264 3.0 8.0 0.00 0.00 0.00 39 1007.1
20260505070024 70 232 4.0 8.0 0.00 0.00 0.00 39 1007.0
20260505065508 70 237 5.0 9.0 0.00 0.00 0.00 40 1006.9
20260505065006 70 229 5.0 9.0 0.00 0.00 0.00 40 1006.9
20260505064524 70 278 5.0 8.0 0.00 0.00 0.00 41 1006.9
20260505064008 70 239 4.0 8.0 0.00 0.00 0.00 41 1006.9
20260505063510 70 274 3.0 9.0 0.00 0.00 0.00 42 1006.9
20260505063028 70 254 4.0 10.0 0.00 0.00 0.00 42 1006.9
20260505062507 70 242 5.0 10.0 0.00 0.00 0.00 43 1006.9
20260505062008 69 260 5.0 8.0 0.00 0.00 0.00 43 1006.9
20260505061524 69 251 3.0 7.0 0.00 0.00 0.00 44 1006.9
20260505061008 69 244 3.0 7.0 0.00 0.00 0.00 44 1006.8
20260505060511 69 215 4.0 8.0 0.00 0.00 0.00 44 1006.7
20260505060028 69 234 3.0 8.0 0.00 0.00 0.00 44 1006.7
20260505055512 69 245 4.0 8.0 0.00 0.00 0.00 44 1006.7
20260505055012 69 213 4.0 8.0 0.00 0.00 0.00 46 1006.7
20260505054519 68 220 3.0 8.0 0.00 0.00 0.00 48 1006.8
20260505054007 68 233 2.0 8.0 0.00 0.00 0.00 49 1006.7
20260505053509 68 244 5.0 8.0 0.00 0.00 0.00 48 1006.7
20260505053027 68 220 6.0 8.0 0.00 0.00 0.00 49 1006.7
20260505052508 68 268 4.0 8.0 0.00 0.00 0.00 50 1006.6
20260505052011 68 229 3.0 7.0 0.00 0.00 0.00 49 1006.5
20260505051528 68 245 3.0 6.0 0.00 0.00 0.00 48 1006.4
20260505051011 69 213 2.0 6.0 0.00 0.00 0.00 46 1006.4
20260505050509 69 213 4.0 6.0 0.00 0.00 0.00 44 1006.4
20260505041525 71 290 5.0 11.0 0.00 0.00 0.00 41 1006.1
20260505041004 71 261 1.0 3.0 0.00 0.00 0.00 41 1005.9
20260505040504 71 74 0.0 3.0 0.00 0.00 0.00 40 1005.7
20260505040019 71 78 1.0 3.0 0.00 0.00 0.00 43 1005.6
20260505035508 71 88 1.0 4.0 0.00 0.00 0.00 41 1005.5
20260505035007 71 88 0.0 6.0 0.00 0.00 0.00 40 1005.4
20260505034534 71 92 3.0 6.0 0.00 0.00 0.00 41 1005.4
20260505034008 70 174 1.0 3.0 0.00 0.00 0.00 40 1005.3
20260505033508 70 136 1.0 3.0 0.00 0.00 0.00 40 1005.2
20260505033010 70 83 1.0 6.0 0.00 0.00 0.00 41 1005.1
20260505032507 71 115 3.0 8.0 0.00 0.00 0.00 40 1005.0
20260505032005 72 65 5.0 8.0 0.00 0.00 0.00 40 1005.0
20260505031512 71 173 5.0 7.0 0.00 0.00 0.00 39 1004.9
20260505031006 71 167 3.0 5.0 0.00 0.00 0.00 40 1004.9
20260505030507 72 165 3.0 5.0 0.00 0.00 0.00 42 1004.9
20260505030023 72 159 2.0 5.0 0.00 0.00 0.00 44 1004.9
20260505025506 73 163 3.0 5.0 0.00 0.00 0.00 40 1004.9
20260505025004 75 160 3.0 4.0 0.00 0.00 0.00 39 1004.8
20260505024507 76 170 3.0 7.0 0.00 0.00 0.00 36 1004.8
20260505024003 77 171 3.0 7.0 0.00 0.00 0.00 37 1004.9
20260505023503 79 157 3.0 6.0 0.00 0.00 0.00 33 1004.8
20260505023016 81 148 2.0 3.0 0.00 0.00 0.00 29 1004.9
20260505022508 81 149 2.0 3.0 0.00 0.00 0.00 28 1004.8
20260505022007 82 135 2.0 3.0 0.00 0.00 0.00 29 1004.9
20260505021526 82 123 2.0 6.0 0.00 0.00 0.00 27 1004.9
20260505021005 83 126 2.0 6.0 0.00 0.00 0.00 28 1004.9
20260505020503 84 130 3.0 6.0 0.00 0.00 0.00 26 1004.9
20260505020014 84 128 2.0 4.0 0.00 0.00 0.00 26 1004.9
20260505015507 84 127 2.0 4.0 0.00 0.00 0.00 26 1005.0
20260505015006 85 112 3.0 4.0 0.00 0.00 0.00 26 1004.9
20260505014522 84 117 2.0 4.0 0.00 0.00 0.00 24 1004.9
20260505014007 84 119 2.0 4.0 0.00 0.00 0.00 25 1005.0
20260505013508 83 123 3.0 6.0 0.00 0.00 0.00 28 1005.0
20260505013028 84 116 2.0 6.0 0.00 0.00 0.00 35 1005.1
20260505012502 85 97 3.0 6.0 0.00 0.00 0.00 32 1005.1
20260505012004 85 105 3.0 8.0 0.00 0.00 0.00 28 1005.1
20260505011516 86 94 4.0 8.0 0.00 0.00 0.00 26 1005.2
20260505011007 86 67 0.0 2.0 0.00 0.00 0.00 27 1005.2
20260505010507 85 342 0.0 3.0 0.00 0.00 0.00 33 1005.2
20260505010024 85 342 1.0 4.0 0.00 0.00 0.00 27 1005.2
20260505005509 85 103 3.0 6.0 0.00 0.00 0.00 34 1005.2
20260505005012 85 80 4.0 6.0 0.00 0.00 0.00 36 1005.2
20260505004515 86 111 4.0 6.0 0.00 0.00 0.00 29 1005.3
20260505004007 86 107 2.0 4.0 0.00 0.00 0.00 27 1005.3
20260505003509 87 96 3.0 4.0 0.00 0.00 0.00 29 1005.3
20260505003022 88 98 2.0 4.0 0.00 0.00 0.00 26 1005.4
20260505002506 87 80 0.0 2.0 0.00 0.00 0.00 24 1005.4
20260505002011 87 80 0.0 6.0 0.00 0.00 0.00 22 1005.4
20260505001528 86 90 1.0 7.0 0.00 0.00 0.00 23 1005.4
20260505001007 86 110 3.0 7.0 0.00 0.00 0.00 25 1005.4
20260505000504 86 292 2.0 4.0 0.00 0.00 0.00 28 1005.4
20260505000019 87 109 2.0 8.0 0.00 0.00 0.00 20 1005.4
20260504235506 87 15 2.0 8.0 0.00 0.00 0.00 22 1005.4
20260504235008 87 32 2.0 9.0 0.00 0.00 0.00 24 1005.4
20260504234527 86 34 3.0 9.0 0.00 0.00 0.00 22 1005.4
20260504234009 87 134 1.0 4.0 0.00 0.00 0.00 26 1005.5
20260504233509 86 350 2.0 8.0 0.00 0.00 0.00 24 1005.5
20260504233026 86 63 3.0 10.0 0.00 0.00 0.00 21 1005.5
20260504232505 86 9 3.0 10.0 0.00 0.00 0.00 25 1005.5
20260504232006 86 317 4.0 10.0 0.00 0.00 0.00 20 1005.5
20260504231519 86 352 5.0 8.0 0.00 0.00 0.00 20 1005.6
20260504231013 86 56 2.0 6.0 0.00 0.00 0.00 25 1005.6
20260504230507 86 74 1.0 11.0 0.00 0.00 0.00 20 1005.7
20260504230028 86 323 6.0 11.0 0.00 0.00 0.00 24 1005.8
20260504225508 86 155 1.0 5.0 0.00 0.00 0.00 29 1005.8
20260504225007 86 14 1.0 9.0 0.00 0.00 0.00 21 1005.8
20260504224517 86 24 3.0 9.0 0.00 0.00 0.00 22 1005.9
20260504224008 85 332 5.0 15.0 0.00 0.00 0.00 26 1006.0
20260504223507 85 311 6.0 15.0 0.00 0.00 0.00 23 1006.0
20260504223022 85 111 4.0 9.0 0.00 0.00 0.00 25 1006.1
20260504222507 85 92 4.0 9.0 0.00 0.00 0.00 24 1006.2
20260504222011 86 97 3.0 7.0 0.00 0.00 0.00 26 1006.3
20260504221528 86 311 1.0 6.0 0.00 0.00 0.00 25 1006.4
20260504221008 85 339 2.0 14.0 0.00 0.00 0.00 22 1006.5
20260504220506 85 349 7.0 14.0 0.00 0.00 0.00 23 1006.6
20260504220030 85 333 7.0 10.0 0.00 0.00 0.00 21 1006.6
20260504215511 86 254 4.0 7.0 0.00 0.00 0.00 26 1006.6
20260504215010 85 201 1.0 4.0 0.00 0.00 0.00 24 1006.7
20260504214526 85 79 2.0 8.0 0.00 0.00 0.00 23 1006.7
20260504214007 85 60 1.0 11.0 0.00 0.00 0.00 21 1006.8
20260504213507 85 360 6.0 11.0 0.00 0.00 0.00 24 1007.0
20260504213033 84 319 3.0 11.0 0.00 0.00 0.00 21 1007.0
20260504212510 84 360 7.0 12.0 0.00 0.00 0.00 20 1007.1
20260504212009 85 57 7.0 12.0 0.00 0.00 0.00 22 1007.2
20260504211526 85 29 3.0 12.0 0.00 0.00 0.00 20 1007.3
20260504211007 85 10 8.0 10.0 0.00 0.00 0.00 22 1007.3
20260504210511 85 66 1.0 10.0 0.00 0.00 0.00 28 1007.3
20260504210027 84 350 3.0 13.0 0.00 0.00 0.00 25 1007.4
20260504205508 84 337 7.0 13.0 0.00 0.00 0.00 23 1007.4
20260504205010 84 347 5.0 14.0 0.00 0.00 0.00 21 1007.4
20260504204537 84 313 11.0 14.0 0.00 0.00 0.00 21 1007.5
20260504204008 84 324 2.0 11.0 0.00 0.00 0.00 20 1007.6
20260504203509 84 346 4.0 9.0 0.00 0.00 0.00 20 1007.6
20260504203026 84 327 4.0 14.0 0.00 0.00 0.00 23 1007.7
20260504202510 84 44 5.0 14.0 0.00 0.00 0.00 22 1007.8
20260504202011 84 336 8.0 13.0 0.00 0.00 0.00 23 1007.8
20260504201527 83 9 7.0 10.0 0.00 0.00 0.00 26 1007.8
20260504201012 83 324 2.0 10.0 0.00 0.00 0.00 23 1007.8
20260504200511 83 316 5.0 10.0 0.00 0.00 0.00 26 1007.9
20260504200020 82 350 4.0 8.0 0.00 0.00 0.00 24 1008.0
20260504195509 82 278 3.0 7.0 0.00 0.00 0.00 24 1008.0
20260504195010 82 286 4.0 7.0 0.00 0.00 0.00 24 1008.0
20260504194527 82 28 1.0 10.0 0.00 0.00 0.00 25 1008.1
20260504194013 82 5 6.0 10.0 0.00 0.00 0.00 24 1008.1
20260504193510 82 45 3.0 11.0 0.00 0.00 0.00 26 1008.2
20260504193030 82 273 1.0 11.0 0.00 0.00 0.00 28 1008.2
20260504192509 82 300 1.0 7.0 0.00 0.00 0.00 27 1008.2
20260504192011 81 212 1.0 5.0 0.00 0.00 0.00 27 1008.3
20260504191526 81 218 2.0 10.0 0.00 0.00 0.00 33 1008.4
20260504191009 81 305 6.0 10.0 0.00 0.00 0.00 27 1008.5
20260504190511 81 38 2.0 6.0 0.00 0.00 0.00 25 1008.5
20260504190012 81 333 3.0 9.0 0.00 0.00 0.00 29 1008.6
20260504185503 81 334 5.0 9.0 0.00 0.00 0.00 26 1008.6
20260504185003 81 309 3.0 8.0 0.00 0.00 0.00 26 1008.6
20260504184508 81 9 4.0 6.0 0.00 0.00 0.00 28 1008.6
20260504184003 81 61 0.0 3.0 0.00 0.00 0.00 29 1008.6
20260504183502 80 138 0.0 7.0 0.00 0.00 0.00 25 1008.6
20260504183003 80 318 1.0 7.0 0.00 0.00 0.00 28 1008.7
20260504182503 80 296 3.0 5.0 0.00 0.00 0.00 30 1008.7
20260504182004 80 313 0.0 2.0 0.00 0.00 0.00 32 1008.7
20260504181507 79 229 0.0 4.0 0.00 0.00 0.00 30 1008.7
20260504181003 78 229 1.0 5.0 0.00 0.00 0.00 34 1008.8
20260504180505 78 268 3.0 5.0 0.00 0.00 0.00 39 1008.8
20260504180004 77 325 2.0 5.0 0.00 0.00 0.00 35 1008.8
20260504175502 77 349 3.0 5.0 0.00 0.00 0.00 34 1008.8
20260504175002 76 319 0.0 4.0 0.00 0.00 0.00 36 1008.8
20260504174507 76 325 3.0 5.0 0.00 0.00 0.00 42 1008.8
20260504174003 75 306 2.0 5.0 0.00 0.00 0.00 40 1008.8
20260504173504 75 316 3.0 5.0 0.00 0.00 0.00 40 1008.9
20260504173008 75 348 3.0 8.0 0.00 0.00 0.00 44 1008.9
20260504172504 75 348 4.0 8.0 0.00 0.00 0.00 40 1008.9
20260504172008 75 322 4.0 8.0 0.00 0.00 0.00 41 1008.9
20260504171507 75 346 5.0 8.0 0.00 0.00 0.00 40 1009.0
20260504171007 74 291 3.0 9.0 0.00 0.00 0.00 40 1009.0
20260504170504 74 304 6.0 9.0 0.00 0.00 0.00 37 1009.0
20260504151003 65 239 2.0 4.0 0.00 0.00 0.00 52 1009.2
20260504150504 64 275 2.0 4.0 0.00 0.00 0.00 52 1009.2
20260504141007 58 197 0.0 2.0 0.00 0.00 0.00 68 1008.9
20260504140504 56 197 0.0 1.0 0.00 0.00 0.00 68 1008.9
20260504130505 49 289 0.0 2.0 0.00 0.00 0.00 78 1008.3
20260504110504 52 205 0.0 4.0 0.00 0.00 0.00 72 1008.4